Powrót do katalogu

TITAN 4B DEB

AktywnyLEO
NORAD 40529·DEBRIS·🇺🇸 United States

Wystrzelony Aug 17, 2000 z Vandenberg Space Force Base

Loading…

Następne Przeloty (najbliższe 24 godziny)

TLE

ŚwieżeSource: Space-Track

Epoka: Sep 14, 2026, 13:39 UTC

1 40529U 00047F   26257.56917529  .00000282  00000-0  34993-4 0  9991
2 40529  67.9955 325.8422 0060187 230.6784 128.9015 14.96218695626114

Śledź TITAN 4B DEB w czasie rzeczywistym z AllMySat

Download on the App Store